Location: Chippewa Lake
(41.0698°N, 81.9010°W)
Time: 01:37:13
(UTC+00:00)

Tiangong - Visible Passes

Search period start: 21 January 2022 00:00
Search period end: 31 January 2022 00:00
Orbit: 383 x 386 km, 41.5° (Epoch: 20 January)

Date Brightness Start Highest point End Pass type
(mag) Time Alt. Az. Time Alt. Az. Time Alt. Az.
26 Jan 4.1 00:54:27 10° SW 00:54:48 12° SW 00:54:48 12° SW visible
26 Jan 2.9 23:55:21 10° SSW 23:57:40 19° SSE 23:58:07 18° SE visible
28 Jan 2.4 00:31:22 10° SW 00:33:34 35° SSW 00:33:34 35° SSW visible
28 Jan 2.3 23:31:52 10° SW 23:34:42 30° SSE 23:36:43 16° E visible
29 Jan 4.2 01:08:11 10° W 01:08:55 16° W 01:08:55 16° W visible
30 Jan 1.1 00:08:21 10° WSW 00:11:31 69° SSE 00:12:01 55° ESE visible
30 Jan 1.7 23:08:37 10° SW 23:11:41 47° SSE 23:14:44 10° E visible
